This is the latest recevied weather packets stored in our database for station/object KD7CIH. If no packets are shown the sender has not sent any weather packets the latest 10 day(s).
| Time | Temp. | Humidity | Pressure | Rain* | Wind** | Luminosity | Snow |
|---|---|---|---|---|---|---|---|
| 1777698307 | 7.78° C | 33% | 1017 hPa | 0 mm | - | - | - |
| 1777698007 | 8.33° C | 32% | 1017.1 hPa | 0 mm | - | - | - |
| 1777697707 | 8.33° C | 31% | 1017.1 hPa | 0 mm | - | - | - |
| 1777697409 | 8.33° C | 34% | 1017.1 hPa | 0 mm | - | - | - |
| 1777697106 | 7.78° C | 33% | 1017 hPa | 0 mm | - | - | - |
| 1777696934 | 8.33° C | 32% | 1017.1 hPa | 0 mm | - | - | - |
| 1777696509 | 8.33° C | 30% | 1017 hPa | 0 mm | - | - | - |
| 1777696208 | 7.78° C | 32% | 1017 hPa | 0 mm | - | - | - |
| 1777695908 | 7.78° C | 35% | 1017.1 hPa | 0 mm | - | - | - |
| 1777695734 | 7.22° C | 39% | 1017 hPa | 0 mm | - | - | - |
| 1777695433 | 7.22° C | 36% | 1017 hPa | 0 mm | - | - | - |
| 1777695008 | 7.22° C | 41% | 1017 hPa | 0 mm | - | - | - |
| 1777694709 | 7.22° C | 41% | 1016.9 hPa | 0 mm | - | - | - |
| 1777694408 | 7.22° C | 41% | 1016.9 hPa | 0 mm | - | - | - |
| 1777694107 | 7.22° C | 43% | 1016.8 hPa | 0 mm | - | - | - |
| 1777693807 | 7.22° C | 43% | 1016.8 hPa | 0 mm | - | - | - |
| 1777693508 | 7.22° C | 42% | 1016.6 hPa | 0 mm | - | - | - |
| 1777693334 | 7.22° C | 42% | 1016.6 hPa | 0 mm | - | - | - |
| 1777692907 | 7.22° C | 41% | 1016.4 hPa | 0 mm | - | - | - |
| 1777692611 | 7.22° C | 40% | 1016.4 hPa | 0 mm | - | - | - |
| 1777692307 | 7.78° C | 41% | 1016.3 hPa | 0 mm | - | - | - |
| 1777692007 | 7.22° C | 41% | 1016 hPa | 0 mm | - | - | - |
| 1777691706 | 7.78° C | 41% | 1016.1 hPa | 0 mm | - | - | - |
| 1777691407 | 8.33° C | 37% | 1016 hPa | 0 mm | - | - | - |
| 1777691235 | 8.89° C | 33% | 1015.9 hPa | 0 mm | - | - | - |
* Rain latest hour (hover to see other rain measurements)
** Current wind speed in m/s (hover to see current wind gust speed)